Location: downtown San Diego
(32.7310°N, 117.1990°W)
Time: 18:02:44
(UTC-07:00)

SL-08 RB Rocket - Pass Details

Date: 19 May 2017
Orbit: 647 x 686 km, 98.0° (Epoch: 26 May)

Event Time Altitude Azimuth Distance (km) Brightness Sun altitude
Exits shadow 22:01:20 56° 55° (NE) 773 3.9 -24.3°
Drops below altitude 10° 22:05:23 10° 357° (N) 2,053 6.9 -24.9°
Sets 22:07:37 0° 353° (N) 2,966 7.9 -25.2°
